Tracking 29892 objects as of 21-Nov-2024
HD Live streaming from Space Station
objects crossing your sky now

SL-16 DEB

Track SL-16 DEB now!
10-day predictions


NORAD ID: 22369
Int'l Code: 1992-093BJ
Perigee: 848.9 km
Apogee: 992.0 km
Inclination: 70.9 °
Period: 103.3 minutes
Semi major axis: 7291 km
RCS: 0.2271 m2 (medium)
Launch date: December 25, 1992
Source: Commonwealth of Independent States (former USSR) (CIS)
Launch site: TYURATAM MISSILE AND SPACE COMPLEX (TTMTR)

Note: This is SATELLITE DEBRIS
Your satellite tracking list
Your tracking list is empty




NASA's NSSDC Master Catalog

Two Line Element Set (TLE):
1 22369U 92093BJ  24325.64120913  .00000065  00000-0  79596-4 0  9998
2 22369  70.8862 217.8235 0098140  93.1094 268.1252 13.94373451621938
Source of the keplerian elements: AFSPC